Overview Statistics Trail Chart Weather Telemetry Raw packets
 

This is the latest recevied weather packets stored in our database for station/object K4DNM. If no packets are shown the sender has not sent any weather packets the latest 10 day(s).

<< 105 106 107 108 109 110 111 >>
Time Temp. Humidity Pressure Rain* Wind** Luminosity Snow
1787766664 31.67° C 49% 1016.9 hPa 0 mm - 877 W/m² -
1787766364 31.67° C 48% 1016.9 hPa 0 mm - 698 W/m² -
1787766060 31.67° C 49% 1016.9 hPa 0 mm - 918 W/m² -
1787765760 31.11° C 47% 1017 hPa 0 mm - 925 W/m² -
1787765521 31.11° C 47% 1016.9 hPa 0 mm - 888 W/m² -
1787765159 31.11° C 52% 1016.9 hPa 0 mm - 922 W/m² -
1787764857 31.11° C 53% 1017 hPa 0 mm - 927 W/m² -
1787764557 31.11° C 54% 1017.1 hPa 0 mm - 934 W/m² -
1787764253 31.67° C 51% 1017.1 hPa 0 mm - 943 W/m² -
1787763960 31.11° C 52% 1017.2 hPa 0 mm - 846 W/m² -
1787763662 31.67° C 51% 1017.2 hPa 0 mm - 947 W/m² -
1787763350 31.67° C 50% 1017.2 hPa 0 mm - 935 W/m² -
1787763050 31.11° C 49% 1017.2 hPa 0 mm - 938 W/m² -
1787762746 30.56° C 52% 1017.3 hPa 0 mm - 947 W/m² -
1787762445 30.56° C 54% 1017.2 hPa 0 mm - 951 W/m² -
1787762147 30.56° C 55% 1017.3 hPa 0 mm - 943 W/m² -
1787761849 31.11° C 55% 1017.4 hPa 0 mm - 945 W/m² -
1787761606 30.56° C 56% 1017.4 hPa 0 mm - 925 W/m² -
1787761245 30.56° C 56% 1017.5 hPa 0 mm - 901 W/m² -
1787760946 30.56° C 55% 1017.5 hPa 0 mm - 895 W/m² -
1787760642 30.56° C 58% 1017.5 hPa 0 mm - 901 W/m² -
1787760337 30° C 58% 1017.5 hPa 0 mm - 907 W/m² -
1787760038 30° C 62% 1017.6 hPa 0 mm - 858 W/m² -
1787759737 30.56° C 59% 1017.7 hPa 0 mm - 151 W/m² -
1787759434 30.56° C 60% 1017.7 hPa 0 mm - 864 W/m² -

* Rain latest hour (hover to see other rain measurements)
** Current wind speed in m/s (hover to see current wind gust speed)